STARLINK-36052, 66605

Orbit data source: Space-Track

STARLINK-36052, 66605 is a payload satellite owned by SpaceX/Seattle (US) in LEO that was launched on Sat, 22 Nov 2025 UTC via an FALCON 9 launch vehicle from the Air Force Eastern Test Range (AFETR). Payload-class satellites include a variety of spacecraft equipped with specific instruments for various scientific and technological missions. These include communications satellites like Starlink; space stations such as the ISS; scientific satellites like the Hubble; Earth observation satellites from companies like Planet Labs, Umbra, and HawkEye 360; GPS; miniature CubeSats for education and research; and military/defense satellites.

Loading next visibility...
Identifier
66605, 2025-270T
Orbit
LEO
Country
Flag of USUS
Related business
Manufacturer
SpaceX/Seattle
Mission
Operational Commercial Communications
Bus & Motor
STARLINK V2MO, Unknown motor
Mass
575 kg wet, ~530 kg dry
Launch date (UTC)
2025-11-22 (7 months ago)
Launch vehicle
FALCON 9
Launch site
Air Force Eastern Test Range (AFETR)
Object type
Payload
Rocket body
Debris
Shape & HBR
Box + 2 Pan, 17.7 m
Radar Cross Section
36.964 m², Large (>1 m²)

Expand to show TLE details & history
Last TLE update: 17 hours ago

TLE from 17 hours ago
0 STARLINK-36052
1 66605U 25270T   26171.14649943  .00010954  00000-0  40686-3 0  9992
2 66605  42.9963 197.6924 0001322 231.4692 128.6041 15.27589390 33378
Epoch: 2026-06-20T03:30Z
TLE epoch observation values (Epoch: 2026-06-20T03:30:57.550Z)
Latitude
-0.00004°
Longitude
-123.41274°
Altitude
483.362 km
Speed
7.625 km/s
True Right ascension
13h 10m 46s
True Declination
0° 00' 00"
Sunlit
Object was in daylight at epoch
Visualization orbit readout
Latitude
Unknown
Longitude
Unknown
Altitude
Unknown
Speed
Unknown
Apparent Right ascension
Unknown
Apparent Declination
Unknown
Sunlit
N/A
Visualization observer readout
Local Sidereal Time
07:18:19
Azimuth
Unknown
Elevation
Unknown
Doppler factor
Unknown
Orbital elements
Apogee altitude
485.874 km
Perigee altitude
484.059 km
Semi-major axis
6,863.104 km
Eccentricity
0.00013
Inclination
42.9963°
RAAN
197.6924°
Arg. of periapsis
231.4692°
True anomaly
128.61594°
Mean anomaly
128.6041°
Eccentric anomaly
128.61002°
Mean motion
3.81735 °/min
Orbital period
94.31 mins
BSTAR
0.00040686
Loading maneuver chart data...
Computing Atmospheric mass density...
Loading historical data...
Loading historical data...
Loading historical data...
Loading historical data...
Loading historical data...
Loading historical data...
Loading historical data...

Documentation

Showing up to 5 results
|